Location: Overspoor
(51.4747°N, 5.6641°E)
Time: 00:59:23
(UTC+02:00)

DUCHIFAT 1 - Pass Details

Date: 07 July 2022
Orbit: 580 x 596 km, 98.0° (Epoch: 09 August)

Event Time Altitude Azimuth Distance (km) Brightness Sun altitude
Rises 03:32:26 0° 23° (NNE) 2,850 ? -12.1°
Reaches altitude 10° 03:34:52 10° 35° (NE) 1,945 ? -11.9°
Maximum altitude 03:38:31 28° 95° (E) 1,141 ? -11.7°
Drops below altitude 10° 03:42:09 10° 154° (SSE) 1,933 ? -11.4°
Enters shadow 03:43:09 - 161° (SSE) 2,294 ? -11.3°
